WN8IZV Weather Reports


Display with metric or nautical units.
time (UTC)temp
F
wind
direction
speed
MPH
gust
MPH
rain 1hr
in
rain 24hr
in
rain mn
in
humidity
%
barometer
mb
20260904170010 71 257 1.0 2.0 0.00 1.22 0.19 84 1014.6
20260904164509 71 162 0.0 1.0 0.00 1.37 0.19 83 1014.5
20260904163003 71 108 0.0 1.0 0.00 1.37 0.19 83 1015.0
20260904161503 70 105 0.0 0.0 0.01 1.37 0.19 83 1015.2
20260904160101 71 300 0.0 2.0 0.02 1.37 0.19 83 1015.3
20260904154559 70 352 0.0 3.0 0.05 1.51 0.19 83 1015.7
20260904153057 70 228 1.0 4.0 0.06 1.51 0.19 83 1015.8
20260904151554 69 131 0.0 0.0 0.07 1.51 0.19 83 1016.4
20260904150049 69 266 0.0 2.0 0.07 1.49 0.17 83 1016.5
20260904144546 69 192 0.0 2.0 0.08 1.46 0.14 83 1016.5
20260904143043 69 352 0.0 1.0 0.09 1.45 0.13 83 1016.4
20260904141541 69 353 0.0 0.0 0.08 1.44 0.12 82 1016.1
20260904140058 69 353 0.0 0.0 0.05 1.41 0.09 82 1016.0
20260904134542 69 353 0.0 2.0 0.03 1.38 0.06 82 1016.5
20260904133034 69 23 0.0 2.0 0.01 1.36 0.04 82 1015.9
20260904131530 69 274 0.0 1.0 0.01 1.36 0.04 82 1016.1
20260904130043 69 274 0.0 0.0 0.01 1.36 0.04 82 1015.7
20260904124525 69 274 0.0 1.0 0.00 1.35 0.03 82 1015.7
20260904123023 69 264 0.0 0.0 0.01 1.35 0.03 82 1015.4
20260904121622 68 264 0.0 1.0 0.03 1.35 0.03 82 1015.4
20260904120019 68 230 0.0 0.0 0.03 1.35 0.03 82 1015.6
20260904114513 68 157 0.0 0.0 0.03 1.35 0.03 82 1015.4
20260904113011 68 157 0.0 0.0 0.00 1.32 0.00 82 1015.0
20260904111511 68 154 0.0 0.0 0.00 1.32 0.00 82 1015.0
20260904110007 68 154 0.0 0.0 0.00 1.32 0.00 82 1015.1
20260904104503 68 188 0.0 0.0 0.00 1.32 0.00 81 1014.9
20260904103002 67 250 0.0 0.0 0.00 1.32 0.00 81 1014.6
20260904101601 67 251 0.0 0.0 0.00 1.32 0.00 81 1014.1
20260904100109 67 251 0.0 0.0 0.00 1.32 0.00 81 1014.1
20260904094555 67 251 0.0 0.0 0.00 1.32 0.00 81 1013.9
20260904093055 67 250 0.0 0.0 0.00 1.32 0.00 81 1014.5
20260904091550 67 250 0.0 0.0 0.00 1.32 0.00 81 1014.8
20260904090048 67 251 0.0 0.0 0.00 1.32 0.00 81 1014.8
20260904084546 67 195 0.0 0.0 0.00 1.32 0.00 81 1014.6
20260904083044 67 199 0.0 2.0 0.00 1.32 0.00 81 1015.0
20260904081541 67 313 0.0 1.0 0.00 1.32 0.00 81 1014.9
20260904080040 67 317 0.0 1.0 0.00 1.32 0.00 81 1014.6
20260904074542 67 280 0.0 2.0 0.00 1.47 0.00 81 1014.3
20260904073037 67 325 0.0 2.0 0.00 1.47 0.00 81 1014.4
20260904071533 67 30 0.0 4.0 0.00 1.47 0.00 81 1014.5
20260904070029 67 354 0.0 2.0 0.00 1.47 0.00 81 1014.8
20260904064525 67 9 0.0 2.0 0.00 1.69 0.00 80 1015.1
20260904063024 67 6 0.0 0.0 0.00 1.69 0.00 80 1015.1
20260904061526 67 6 0.0 0.0 0.00 1.69 0.00 80 1015.1
20260904060021 67 6 0.0 0.0 0.00 1.69 0.00 80 1015.1
20260904054516 67 6 0.0 0.0 0.00 1.74 0.00 80 1015.2
20260904053020 68 6 0.0 0.0 0.00 1.74 0.00 80 1015.1
20260904051522 68 6 0.0 2.0 0.00 1.74 0.00 80 1015.4
20260904050007 68 6 0.0 1.0 0.00 1.74 0.00 80 1015.4
20260904044503 68 6 0.0 0.0 0.00 1.74 0.00 80 1015.4
20260904043059 67 6 0.0 0.0 0.00 1.74 0.00 80 1015.2
20260904041556 67 6 0.0 0.0 0.00 1.74 0.00 80 1015.1
20260904040053 68 6 0.0 0.0 0.00 1.74 0.00 80 1015.0
20260904034549 68 6 0.0 0.0 0.00 2.23 1.74 80 1014.8
20260904033045 68 6 0.0 1.0 0.00 2.23 1.74 80 1014.8
20260904031544 68 6 0.0 1.0 0.00 2.23 1.74 80 1014.7
20260904030041 68 6 0.0 0.0 0.00 2.23 1.74 80 1014.5
20260904024539 69 6 0.0 0.0 0.00 2.24 1.74 80 1014.5
20260904023038 69 6 0.0 1.0 0.00 2.24 1.74 80 1014.5
20260904021538 69 6 0.0 1.0 0.00 2.24 1.74 79 1014.6
20260904020033 69 6 0.0 1.0 0.00 2.24 1.74 79 1014.7
20260904014534 70 322 0.0 1.0 0.00 2.24 1.74 79 1014.7
20260904013030 70 11 1.0 3.0 0.00 2.24 1.74 79 1014.6
20260904011534 70 13 0.0 2.0 0.00 2.24 1.74 79 1014.3
20260904010038 70 263 0.0 1.0 0.00 2.24 1.74 79 1014.4
20260904004524 70 13 0.0 1.0 0.00 2.24 1.74 79 1014.0
20260904003025 70 13 0.0 1.0 0.00 2.24 1.74 79 1013.7
20260904001520 70 147 0.0 2.0 0.00 2.24 1.74 79 1013.3
20260904000024 70 152 1.0 3.0 0.00 2.24 1.74 79 1013.1
20260903234515 71 198 1.0 4.0 0.00 2.24 1.74 79 1013.4
20260903233012 71 157 0.0 3.0 0.00 2.24 1.74 79 1013.3
20260903231511 71 229 0.0 1.0 0.00 2.24 1.74 79 1013.2
20260903230010 71 190 0.0 1.0 0.00 2.24 1.74 79 1012.9
20260903224507 71 153 1.0 2.0 0.00 2.24 1.74 79 1013.3
20260903223009 71 200 0.0 0.0 0.00 2.24 1.74 79 1013.6
20260903221504 70 197 0.0 2.0 0.00 2.24 1.74 79 1013.9
20260903220002 70 196 1.0 2.0 0.00 2.24 1.74 79 1014.4
20260903214600 70 210 0.0 5.0 0.01 2.24 1.74 78 1014.7
20260903213102 70 183 1.0 3.0 0.04 2.24 1.74 78 1014.4
20260903211557 70 350 0.0 1.0 0.75 2.24 1.74 78 1014.6
20260903210108 69 285 0.0 2.0 0.95 2.24 1.74 78 1014.7
20260903204616 70 319 1.0 8.0 0.94 2.23 1.73 78 1014.5
20260903203051 70 69 1.0 10.0 0.91 2.20 1.70 78 1014.1
20260903201551 72 36 5.0 11.0 0.15 1.44 0.94 79 1015.4
20260903200053 73 18 1.0 7.0 0.00 1.29 0.79 79 1013.4
20260903194543 73 19 0.0 0.0 0.00 1.29 0.79 78 1011.7
20260903193040 73 19 0.0 0.0 0.00 1.29 0.79 78 1012.5
20260903191537 74 162 0.0 0.0 0.00 1.29 0.79 78 1012.5
20260903190036 75 206 0.0 0.0 0.00 1.29 0.79 78 1012.9
20260903184532 76 288 0.0 1.0 0.00 1.29 0.79 78 1012.7
20260903183030 76 219 0.0 1.0 0.00 1.29 0.79 78 1013.1
20260903181528 76 105 1.0 3.0 0.00 1.29 0.79 78 1012.9
20260903180034 75 152 0.0 1.0 0.05 1.29 0.79 78 1012.6
20260903174524 73 198 0.0 3.0 0.19 1.29 0.79 78 1012.6
20260903173021 71 169 0.0 3.0 0.21 1.29 0.79 77 1012.5
20260903171520 70 163 0.0 0.0 0.22 1.29 0.79 77 1012.8